Time,TemperatureF,DewpointF,PressureIn,WindDirection,WindDirectionDegrees,WindSpeedMPH,WindSpeedGustMPH,Humidity,HourlyPrecipIn,Conditions,Clouds,dailyrainin,SoftwareType,DateUTC
2013-03-24 00:10:00,33.2,26.0,30.04,SE,134,5.0,11.0,74,0.00,,,0.00,weatherlink.com 1.10,2013-03-24 05:10:00,
2013-03-24 00:25:00,31.6,27.0,30.04,ESE,118,7.0,12.0,83,0.00,,,0.00,weatherlink.com 1.10,2013-03-24 05:25:00,
2013-03-24 00:40:00,30.9,28.0,30.04,East,100,6.0,11.0,87,0.00,,,0.00,weatherlink.com 1.10,2013-03-24 05:40:00,
2013-03-24 00:55:00,30.9,27.0,30.03,ESE,103,4.0,11.0,86,0.00,,,0.00,weatherlink.com 1.10,2013-03-24 05:55:00,
2013-03-24 01:11:00,31.1,27.0,30.03,ESE,104,5.0,9.0,85,0.00,,,0.00,weatherlink.com 1.10,2013-03-24 06:11:00,
2013-03-24 01:26:00,31.0,27.0,30.02,East,99,6.0,12.0,85,0.00,,,0.00,weatherlink.com 1.10,2013-03-24 06:26:00,
2013-03-24 01:56:00,30.7,27.0,30.00,East,94,9.0,13.0,86,0.00,,,0.00,weatherlink.com 1.10,2013-03-24 06:56:00,
2013-03-24 02:41:00,30.6,27.0,30.01,ESE,118,5.0,10.0,86,0.00,,,0.00,weatherlink.com 1.10,2013-03-24 07:41:00,
2013-03-24 02:56:00,30.4,27.0,30.00,ESE,107,5.0,9.0,87,0.00,,,0.00,weatherlink.com 1.10,2013-03-24 07:56:00,
2013-03-24 03:11:00,30.2,27.0,29.99,ESE,108,5.0,7.0,88,0.00,,,0.00,weatherlink.com 1.10,2013-03-24 08:11:00,
2013-03-24 03:26:00,30.0,27.0,29.98,East,95,5.0,8.0,89,0.00,,,0.00,weatherlink.com 1.10,2013-03-24 08:26:00,
2013-03-24 03:56:00,29.8,27.0,29.97,East,101,3.0,6.0,90,0.00,,,0.00,weatherlink.com 1.10,2013-03-24 08:56:00,
2013-03-24 04:12:00,29.8,28.0,29.96,East,94,3.0,5.0,91,0.00,,,0.00,weatherlink.com 1.10,2013-03-24 09:12:00,
2013-03-24 04:26:00,29.7,27.0,29.95,ENE,75,1.0,3.0,91,0.00,,,0.00,weatherlink.com 1.10,2013-03-24 09:26:00,
2013-03-24 04:42:00,29.6,27.0,29.93,ESE,121,3.0,6.0,91,0.00,,,0.00,weatherlink.com 1.10,2013-03-24 09:42:00,
2013-03-24 04:57:00,29.7,28.0,29.92,ESE,104,2.0,6.0,92,0.00,,,0.00,weatherlink.com 1.10,2013-03-24 09:57:00,
2013-03-24 05:12:00,29.8,28.0,29.91,East,90,6.0,8.0,91,0.00,,,0.00,weatherlink.com 1.10,2013-03-24 10:12:00,
2013-03-24 05:27:00,30.0,28.0,29.92,ESE,121,4.0,13.0,91,0.00,,,0.00,weatherlink.com 1.10,2013-03-24 10:27:00,
2013-03-24 05:42:00,30.3,28.0,29.93,East,93,6.0,12.0,89,0.00,,,0.00,weatherlink.com 1.10,2013-03-24 10:42:00,
2013-03-24 05:57:00,30.2,27.0,29.93,ESE,115,9.0,13.0,89,0.00,,,0.00,weatherlink.com 1.10,2013-03-24 10:57:00,
2013-03-24 06:12:00,30.2,27.0,29.93,East,81,2.0,11.0,89,0.00,,,0.00,weatherlink.com 1.10,2013-03-24 11:12:00,
2013-03-24 06:27:00,30.1,28.0,29.92,NE,51,4.0,7.0,90,0.00,,,0.00,weatherlink.com 1.10,2013-03-24 11:27:00,
2013-03-24 06:42:00,29.9,27.0,29.91,ESE,104,4.0,8.0,90,0.00,,,0.00,weatherlink.com 1.10,2013-03-24 11:42:00,
2013-03-24 06:57:00,29.7,27.0,29.91,East,92,6.0,9.0,91,0.00,,,0.00,weatherlink.com 1.10,2013-03-24 11:57:00,
2013-03-24 07:12:00,29.7,27.0,29.90,East,86,2.0,9.0,91,0.00,,,0.00,weatherlink.com 1.10,2013-03-24 12:12:00,
2013-03-24 07:27:00,29.8,28.0,29.89,ENE,59,2.0,8.0,91,0.00,,,0.00,weatherlink.com 1.10,2013-03-24 12:27:00,
2013-03-24 07:42:00,29.8,28.0,29.88,NE,55,6.0,12.0,91,0.00,,,0.00,weatherlink.com 1.10,2013-03-24 12:42:00,
2013-03-24 07:57:00,29.8,28.0,29.88,NE,34,3.0,14.0,91,0.00,,,0.00,weatherlink.com 1.10,2013-03-24 12:57:00,
2013-03-24 08:13:00,29.8,28.0,29.87,NNE,17,8.0,12.0,91,0.00,,,0.00,weatherlink.com 1.10,2013-03-24 13:13:00,
2013-03-24 08:28:00,29.9,28.0,29.84,ENE,68,8.0,15.0,91,0.00,,,0.00,weatherlink.com 1.10,2013-03-24 13:28:00,
2013-03-24 08:43:00,30.1,28.0,29.84,NE,49,7.0,14.0,91,0.00,,,0.00,weatherlink.com 1.10,2013-03-24 13:43:00,
2013-03-24 08:58:00,30.4,28.0,29.82,ENE,63,7.0,14.0,91,0.00,,,0.00,weatherlink.com 1.10,2013-03-24 13:58:00,
2013-03-24 09:13:00,30.5,28.0,29.82,East,93,5.0,17.0,91,0.00,,,0.00,weatherlink.com 1.10,2013-03-24 14:13:00,
2013-03-24 09:28:00,30.7,28.0,29.83,East,98,13.0,13.0,91,0.00,,,0.00,weatherlink.com 1.10,2013-03-24 14:28:00,
2013-03-24 09:43:00,30.8,29.0,29.82,East,98,5.0,10.0,91,0.00,,,0.00,weatherlink.com 1.10,2013-03-24 14:43:00,
2013-03-24 09:58:00,31.0,29.0,29.82,East,98,2.0,10.0,90,0.00,,,0.00,weatherlink.com 1.10,2013-03-24 14:58:00,
2013-03-24 10:13:00,31.1,29.0,29.82,East,81,5.0,10.0,90,0.00,,,0.00,weatherlink.com 1.10,2013-03-24 15:13:00,
2013-03-24 10:28:00,31.3,29.0,29.82,East,82,9.0,10.0,90,0.00,,,0.00,weatherlink.com 1.10,2013-03-24 15:28:00,
2013-03-24 10:43:00,31.5,29.0,29.82,East,98,5.0,10.0,90,0.00,,,0.00,weatherlink.com 1.10,2013-03-24 15:43:00,
2013-03-24 10:58:00,31.6,29.0,29.82,NE,40,4.0,10.0,89,0.00,,,0.00,weatherlink.com 1.10,2013-03-24 15:58:00,
2013-03-24 11:13:00,31.9,29.0,29.82,East,84,6.0,9.0,89,0.00,,,0.00,weatherlink.com 1.10,2013-03-24 16:13:00,
2013-03-24 11:29:00,32.2,29.0,29.82,NE,39,5.0,8.0,89,0.00,,,0.00,weatherlink.com 1.10,2013-03-24 16:29:00,
2013-03-24 11:44:00,32.5,30.0,29.81,ENE,62,4.0,10.0,89,0.00,,,0.00,weatherlink.com 1.10,2013-03-24 16:44:00,
2013-03-24 11:59:00,32.6,30.0,29.81,NE,34,2.0,10.0,90,0.00,,,0.00,weatherlink.com 1.10,2013-03-24 16:59:00,
2013-03-24 12:14:00,32.4,30.0,29.80,NE,41,3.0,11.0,91,0.00,,,0.00,weatherlink.com 1.10,2013-03-24 17:14:00,
2013-03-24 12:29:00,32.3,30.0,29.80,North,355,3.0,15.0,91,0.01,,,0.01,weatherlink.com 1.10,2013-03-24 17:29:00,
2013-03-24 12:44:00,32.5,30.0,29.79,ENE,69,5.0,12.0,91,0.01,,,0.01,weatherlink.com 1.10,2013-03-24 17:44:00,
2013-03-24 12:59:00,32.6,30.0,29.78,North,11,3.0,13.0,90,0.02,,,0.02,weatherlink.com 1.10,2013-03-24 17:59:00,
2013-03-24 13:14:00,32.5,30.0,29.77,NNE,12,5.0,12.0,90,0.02,,,0.02,weatherlink.com 1.10,2013-03-24 18:14:00,
2013-03-24 13:29:00,32.6,30.0,29.77,East,85,6.0,11.0,91,0.02,,,0.03,weatherlink.com 1.10,2013-03-24 18:29:00,
2013-03-24 13:44:00,32.5,30.0,29.77,ENE,61,7.0,17.0,91,0.03,,,0.04,weatherlink.com 1.10,2013-03-24 18:44:00,
2013-03-24 13:59:00,32.6,31.0,29.76,East,97,7.0,11.0,92,0.02,,,0.04,weatherlink.com 1.10,2013-03-24 18:59:00,
2013-03-24 14:14:00,32.5,31.0,29.75,East,90,5.0,11.0,92,0.02,,,0.04,weatherlink.com 1.10,2013-03-24 19:14:00,
2013-03-24 14:29:00,32.3,30.0,29.74,NE,40,8.0,13.0,92,0.02,,,0.05,weatherlink.com 1.10,2013-03-24 19:29:00,
2013-03-24 14:44:00,32.3,30.0,29.74,NE,35,7.0,16.0,92,0.01,,,0.05,weatherlink.com 1.10,2013-03-24 19:44:00,
2013-03-24 15:00:00,32.4,30.0,29.73,NE,50,7.0,14.0,92,0.02,,,0.06,weatherlink.com 1.10,2013-03-24 20:00:00,
2013-03-24 15:15:00,32.5,31.0,29.73,ENE,61,2.0,17.0,92,0.02,,,0.06,weatherlink.com 1.10,2013-03-24 20:15:00,
2013-03-24 15:30:00,32.4,30.0,29.73,NE,52,4.0,15.0,92,0.02,,,0.07,weatherlink.com 1.10,2013-03-24 20:30:00,
2013-03-24 15:45:00,32.4,30.0,29.73,ENE,61,10.0,13.0,92,0.02,,,0.07,weatherlink.com 1.10,2013-03-24 20:45:00,
2013-03-24 16:00:00,32.4,30.0,29.73,ENE,57,5.0,16.0,92,0.02,,,0.08,weatherlink.com 1.10,2013-03-24 21:00:00,
2013-03-24 16:15:00,32.4,30.0,29.74,NNE,27,4.0,14.0,92,0.02,,,0.08,weatherlink.com 1.10,2013-03-24 21:15:00,
2013-03-24 16:30:00,32.2,30.0,29.74,NNE,28,9.0,12.0,92,0.02,,,0.09,weatherlink.com 1.10,2013-03-24 21:30:00,
2013-03-24 16:45:00,31.9,30.0,29.75,NNE,12,4.0,17.0,92,0.02,,,0.09,weatherlink.com 1.10,2013-03-24 21:45:00,
2013-03-24 17:00:00,31.6,30.0,29.75,East,79,0.0,0.0,93,0.01,,,0.09,weatherlink.com 1.10,2013-03-24 22:00:00,
2013-03-24 17:15:00,31.5,30.0,29.76,NNE,32,0.0,0.0,93,0.01,,,0.09,weatherlink.com 1.10,2013-03-24 22:15:00,
2013-03-24 17:30:00,31.4,30.0,29.76,NNE,15,0.0,0.0,93,0.00,,,0.09,weatherlink.com 1.10,2013-03-24 22:30:00,
2013-03-24 17:45:00,31.2,29.0,29.77,WNW,289,0.0,0.0,93,0.00,,,0.09,weatherlink.com 1.10,2013-03-24 22:45:00,
2013-03-24 18:00:00,31.1,29.0,29.77,North,360,0.0,0.0,93,0.00,,,0.09,weatherlink.com 1.10,2013-03-24 23:00:00,
2013-03-24 18:16:00,31.0,29.0,29.78,North,360,0.0,0.0,93,0.00,,,0.09,weatherlink.com 1.10,2013-03-24 23:16:00,
2013-03-24 18:31:00,30.8,29.0,29.78,NE,35,0.0,0.0,93,0.00,,,0.09,weatherlink.com 1.10,2013-03-24 23:31:00,
2013-03-24 18:46:00,30.6,29.0,29.79,NNE,32,0.0,0.0,94,0.00,,,0.09,weatherlink.com 1.10,2013-03-24 23:46:00,
2013-03-24 19:16:00,30.3,29.0,29.80,North,5,0.0,0.0,94,0.00,,,0.09,weatherlink.com 1.10,2013-03-25 00:16:00,
2013-03-24 19:31:00,30.2,29.0,29.80,NNE,29,0.0,0.0,94,0.00,,,0.09,weatherlink.com 1.10,2013-03-25 00:31:00,
2013-03-24 19:46:00,30.1,29.0,29.81,NNE,23,0.0,0.0,94,0.00,,,0.09,weatherlink.com 1.10,2013-03-25 00:46:00,
2013-03-24 20:01:00,30.0,28.0,29.81,NE,37,0.0,0.0,93,0.00,,,0.09,weatherlink.com 1.10,2013-03-25 01:01:00,
2013-03-24 20:31:00,29.9,28.0,29.82,NNE,17,0.0,0.0,93,0.00,,,0.09,weatherlink.com 1.10,2013-03-25 01:31:00,
2013-03-24 20:46:00,29.9,28.0,29.82,North,360,0.0,0.0,94,0.00,,,0.09,weatherlink.com 1.10,2013-03-25 01:46:00,
2013-03-24 21:01:00,29.9,28.0,29.83,NNE,13,0.0,0.0,94,0.00,,,0.09,weatherlink.com 1.10,2013-03-25 02:01:00,
2013-03-24 21:16:00,29.8,28.0,29.83,North,5,0.0,0.0,94,0.00,,,0.09,weatherlink.com 1.10,2013-03-25 02:16:00,
2013-03-24 21:31:00,29.7,28.0,29.83,NNE,25,0.0,0.0,94,0.00,,,0.09,weatherlink.com 1.10,2013-03-25 02:31:00,
2013-03-24 21:47:00,29.7,28.0,29.83,NNE,30,0.0,0.0,94,0.00,,,0.09,weatherlink.com 1.10,2013-03-25 02:47:00,
2013-03-24 22:02:00,29.7,28.0,29.83,NE,51,0.0,0.0,94,0.00,,,0.09,weatherlink.com 1.10,2013-03-25 03:02:00,
2013-03-24 22:17:00,29.7,28.0,29.83,NE,42,0.0,0.0,94,0.00,,,0.09,weatherlink.com 1.10,2013-03-25 03:17:00,
2013-03-24 22:32:00,29.7,28.0,29.83,North,350,0.0,0.0,94,0.00,,,0.09,weatherlink.com 1.10,2013-03-25 03:32:00,
2013-03-24 22:47:00,29.8,28.0,29.84,NNE,12,0.0,0.0,94,0.00,,,0.09,weatherlink.com 1.10,2013-03-25 03:47:00,
2013-03-24 23:02:00,29.8,28.0,29.83,NNE,14,0.0,0.0,94,0.00,,,0.09,weatherlink.com 1.10,2013-03-25 04:02:00,
2013-03-24 23:17:00,29.7,28.0,29.83,North,11,0.0,0.0,94,0.00,,,0.09,weatherlink.com 1.10,2013-03-25 04:17:00,
2013-03-24 23:32:00,29.6,28.0,29.84,ENE,59,0.0,0.0,94,0.00,,,0.09,weatherlink.com 1.10,2013-03-25 04:32:00,
2013-03-24 23:47:00,29.4,28.0,29.84,North,360,0.0,0.0,93,0.00,,,0.09,weatherlink.com 1.10,2013-03-25 04:47:00,